User: anonymous   Login
Location: U-46 Planetarium
(42.0300°N, 88.2740°W)
Time: 16:26:44
(UTC-05:00)
Language:

Cosmos 2263 Rocket - Orbit

View from above orbital plane
View from above orbital plane
View from above satellite
View from above satellite

Ground track
Ground track

The orbit data is extracted from the following two-line orbital elements,

1 22803U 93059B   18139.79256811  .00000212  00000-0  12967-3 0  9995
2 22803  70.9909 260.1229 0019079 236.9792 122.9499 14.16792452275963
Epoch (UTC): 19 May 2018 19:01:17
Eccentricity: 0.0019079
inclination: 70.9909°
perigee height: 822 km
apogee height: 850 km
right ascension of ascending node: 260.1229°
argument of perigee: 236.9792°
revolutions per day: 14.16792452
mean anomaly at epoch: 122.9499°
orbit number at epoch: 27596

The dashed part of the orbit path shows where the satellite is in the earth's shadow,  

DLR